When you browse on this site, cookies collect data to enhance your experience and personalize the content and advertising you see.
Visit our Privacy Policy to learn more. By continuing to use the site, you agree to this use of cookies and data.

Hourly Weather Nakhchivan

Today, 10 July, Friday

Time Temperature Precipitation Wind Pressure Humidity
00:00 +27°C° 0.1 mm 2 mps 687 mmHg 49%
01:00 +27°C° 0 mm 1 mps 687 mmHg 51%
02:00 +27°C° 0 mm 1 mps 686 mmHg 52%
03:00 +26°C° 0 mm 1 mps 686 mmHg 53%
04:00 +26°C° 0 mm 1 mps 687 mmHg 53%
05:00 +26°C° 0 mm 1 mps 687 mmHg 52%
06:00 +26°C° 0 mm 1 mps 687 mmHg 51%
07:00 +27°C° 0.3 mm 2 mps 687 mmHg 49%
08:00 +28°C° 0.3 mm 3 mps 687 mmHg 47%
09:00 +28°C° 0.3 mm 4 mps 687 mmHg 45%
10:00 +29°C° 0.1 mm 3 mps 687 mmHg 43%
11:00 +30°C° 0.1 mm 3 mps 687 mmHg 40%
12:00 +31°C° 0.1 mm 2 mps 687 mmHg 37%
13:00 +33°C° 0.1 mm 3 mps 687 mmHg 35%
14:00 +34°C° 0.1 mm 4 mps 687 mmHg 32%
15:00 +36°C° 0.1 mm 4 mps 687 mmHg 30%
16:00 +33°C° 1.7 mm 5 mps 686 mmHg 40%
17:00 +29°C° 1.7 mm 5 mps 686 mmHg 49%
18:00 +26°C° 1.7 mm 5 mps 686 mmHg 59%
19:00 +27°C° 0.1 mm 4 mps 686 mmHg 58%
20:00 +27°C° 0.1 mm 3 mps 687 mmHg 57%
21:00 +27°C° 0.1 mm 2 mps 687 mmHg 56%
22:00 +26°C° 0.4 mm 2 mps 687 mmHg 59%
23:00 +26°C° 0.4 mm 2 mps 687 mmHg 61%

Tomorrow, 11 July, Saturday

Time Temperature Precipitation Wind Pressure Humidity
00:00 +25°C° 0.4 mm 3 mps 687 mmHg 64%
01:00 +25°C° 0.1 mm 2 mps 687 mmHg 66%
02:00 +24°C° 0.1 mm 2 mps 687 mmHg 68%
03:00 +24°C° 0.1 mm 1 mps 687 mmHg 70%
04:00 +24°C° 0 mm 1 mps 687 mmHg 69%
05:00 +24°C° 0 mm 1 mps 687 mmHg 68%
06:00 +24°C° 0 mm 1 mps 687 mmHg 67%
07:00 +25°C° 0 mm 1 mps 687 mmHg 62%
08:00 +26°C° 0 mm 1 mps 687 mmHg 58%
09:00 +27°C° 0 mm 1 mps 687 mmHg 53%
10:00 +28°C° 0 mm 2 mps 687 mmHg 48%
11:00 +30°C° 0 mm 2 mps 687 mmHg 44%
12:00 +31°C° 0 mm 3 mps 687 mmHg 39%
13:00 +33°C° 0 mm 3 mps 686 mmHg 37%
14:00 +34°C° 0 mm 4 mps 686 mmHg 34%
15:00 +34°C° 0 mm 4 mps 686 mmHg 32%
16:00 +33°C° 0.1 mm 5 mps 686 mmHg 35%
17:00 +32°C° 0.1 mm 6 mps 686 mmHg 38%
18:00 +30°C° 0.1 mm 7 mps 686 mmHg 41%
19:00 +29°C° 0.1 mm 6 mps 686 mmHg 43%
20:00 +28°C° 0.1 mm 5 mps 686 mmHg 45%
21:00 +27°C° 0.1 mm 4 mps 687 mmHg 47%
22:00 +26°C° 0 mm 3 mps 687 mmHg 50%
23:00 +26°C° 0 mm 2 mps 686 mmHg 53%

Day after tomorrow, 12 July, Sunday

Time Temperature Precipitation Wind Pressure Humidity
00:00 +26°C° 0 mm 2 mps 686 mmHg 55%
01:00 +25°C° 0 mm 1 mps 686 mmHg 57%
02:00 +25°C° 0 mm 1 mps 686 mmHg 58%
03:00 +24°C° 0 mm 1 mps 685 mmHg 60%
04:00 +24°C° 0 mm 1 mps 685 mmHg 59%
05:00 +24°C° 0 mm 1 mps 685 mmHg 58%
06:00 +24°C° 0 mm 2 mps 685 mmHg 58%
07:00 +25°C° 0 mm 2 mps 685 mmHg 52%
08:00 +27°C° 0 mm 2 mps 685 mmHg 47%
09:00 +28°C° 0 mm 2 mps 685 mmHg 42%
10:00 +29°C° 0 mm 2 mps 685 mmHg 39%
11:00 +31°C° 0 mm 2 mps 685 mmHg 35%
12:00 +32°C° 0 mm 2 mps 685 mmHg 32%
13:00 +34°C° 0 mm 3 mps 685 mmHg 30%
14:00 +35°C° 0 mm 3 mps 685 mmHg 28%
15:00 +36°C° 0 mm 4 mps 685 mmHg 26%
16:00 +36°C° 0 mm 4 mps 685 mmHg 27%
17:00 +35°C° 0 mm 4 mps 685 mmHg 27%
18:00 +35°C° 0 mm 4 mps 685 mmHg 28%
19:00 +34°C° 0.1 mm 3 mps 685 mmHg 33%
20:00 +31°C° 0.1 mm 3 mps 685 mmHg 39%
21:00 +29°C° 0.1 mm 3 mps 685 mmHg 44%
22:00 +29°C° 0 mm 3 mps 685 mmHg 45%
23:00 +28°C° 0 mm 2 mps 684 mmHg 46%

13 July, Monday

Time Temperature Precipitation Wind Pressure Humidity
00:00 +28°C° 0 mm 1 mps 684 mmHg 48%
01:00 +27°C° 0 mm 1 mps 684 mmHg 49%
02:00 +27°C° 0 mm 1 mps 683 mmHg 51%
03:00 +26°C° 0 mm 1 mps 683 mmHg 53%
04:00 +26°C° 0 mm 1 mps 683 mmHg 51%
05:00 +26°C° 0 mm 1 mps 683 mmHg 50%
06:00 +27°C° 0 mm 1 mps 683 mmHg 49%
07:00 +28°C° 0 mm 1 mps 683 mmHg 45%
08:00 +29°C° 0 mm 1 mps 683 mmHg 42%
09:00 +30°C° 0 mm 1 mps 683 mmHg 39%
10:00 +31°C° 0 mm 1 mps 683 mmHg 35%
11:00 +33°C° 0 mm 1 mps 683 mmHg 32%
12:00 +34°C° 0 mm 1 mps 683 mmHg 28%
13:00 +36°C° 0 mm 2 mps 683 mmHg 26%
14:00 +37°C° 0 mm 2 mps 683 mmHg 23%
15:00 +38°C° 0 mm 3 mps 683 mmHg 21%
16:00 +36°C° 0.1 mm 3 mps 682 mmHg 26%
17:00 +34°C° 0.1 mm 4 mps 682 mmHg 31%
18:00 +32°C° 0.1 mm 5 mps 682 mmHg 36%
19:00 +32°C° 0 mm 5 mps 682 mmHg 38%
20:00 +30°C° 0 mm 5 mps 683 mmHg 39%
21:00 +30°C° 0 mm 5 mps 683 mmHg 41%
22:00 +29°C° 0.3 mm 4 mps 683 mmHg 43%
23:00 +28°C° 0.3 mm 3 mps 684 mmHg 44%

14 July, Tuesday

Time Temperature Precipitation Wind Pressure Humidity
00:00 +28°C° 0.3 mm 1 mps 684 mmHg 46%
01:00 +27°C° 0.1 mm 1 mps 684 mmHg 48%
02:00 +27°C° 0.1 mm 1 mps 684 mmHg 50%
03:00 +27°C° 0.1 mm 1 mps 684 mmHg 52%
04:00 +26°C° 0 mm 1 mps 684 mmHg 52%
05:00 +26°C° 0 mm 1 mps 684 mmHg 52%
06:00 +26°C° 0 mm 2 mps 684 mmHg 51%
07:00 +27°C° 0 mm 2 mps 684 mmHg 48%
08:00 +28°C° 0 mm 2 mps 684 mmHg 44%
09:00 +30°C° 0 mm 2 mps 685 mmHg 41%
10:00 +31°C° 0 mm 2 mps 685 mmHg 37%
11:00 +32°C° 0 mm 2 mps 685 mmHg 33%
12:00 +33°C° 0 mm 1 mps 685 mmHg 30%
13:00 +34°C° 0 mm 1 mps 685 mmHg 28%
14:00 +35°C° 0 mm 1 mps 685 mmHg 25%
15:00 +36°C° 0 mm 1 mps 685 mmHg 23%
16:00 +37°C° 0 mm 2 mps 685 mmHg 24%
17:00 +36°C° 0 mm 2 mps 685 mmHg 25%
18:00 +35°C° 0 mm 3 mps 685 mmHg 26%
19:00 +34°C° 0.1 mm 3 mps 685 mmHg 29%
20:00 +32°C° 0.1 mm 2 mps 686 mmHg 33%
21:00 +31°C° 0.1 mm 2 mps 686 mmHg 36%
22:00 +30°C° 0.1 mm 2 mps 686 mmHg 39%
23:00 +30°C° 0.1 mm 2 mps 686 mmHg 42%

15 July, Wednesday

Time Temperature Precipitation Wind Pressure Humidity
00:00 +29°C° 0.1 mm 1 mps 686 mmHg 44%
01:00 +29°C° 0.1 mm 1 mps 686 mmHg 46%
02:00 +28°C° 0.1 mm 1 mps 686 mmHg 48%
03:00 +27°C° 0.1 mm 1 mps 686 mmHg 49%
04:00 +27°C° 0 mm 1 mps 686 mmHg 49%
05:00 +27°C° 0 mm 1 mps 686 mmHg 49%
06:00 +27°C° 0 mm 1 mps 686 mmHg 49%
07:00 +28°C° 0 mm 1 mps 686 mmHg 45%
08:00 +29°C° 0 mm 1 mps 686 mmHg 42%
09:00 +30°C° 0 mm 1 mps 686 mmHg 39%
10:00 +32°C° 0 mm 1 mps 686 mmHg 36%
11:00 +33°C° 0 mm 1 mps 686 mmHg 32%
12:00 +35°C° 0 mm 1 mps 686 mmHg 29%
13:00 +37°C° 0 mm 2 mps 686 mmHg 26%
14:00 +38°C° 0 mm 2 mps 686 mmHg 24%
15:00 +39°C° 0 mm 2 mps 686 mmHg 21%
16:00 +39°C° 0 mm 2 mps 685 mmHg 21%
17:00 +38°C° 0 mm 3 mps 685 mmHg 21%
18:00 +38°C° 0 mm 3 mps 685 mmHg 21%
19:00 +36°C° 0.1 mm 3 mps 686 mmHg 27%
20:00 +35°C° 0.1 mm 4 mps 686 mmHg 32%
21:00 +33°C° 0.1 mm 4 mps 686 mmHg 37%
22:00 +30°C° 0.3 mm 4 mps 686 mmHg 42%
23:00 +29°C° 0.3 mm 4 mps 685 mmHg 47%
Show more